Mmabatho, South Africa

8:38 AM SAST on November 18, 2017 (GMT +0200)
Mmabatho

Weather History for FAMM - November, 2012

Change the Weather History Date:

Thursday, November 1, 2012

  Actual Average Record
Temperature  
Mean Temperature 68 °F -  
Max Temperature 79 °F - - ()
Min Temperature 57 °F - - ()
Cooling Degree Days 3    
Growing Degree Days 18 (Base 50)    
Moisture  
Dew Point 40 °F    
Average Humidity 36    
Maximum Humidity 52    
Minimum Humidity 16    
Precipitation  
Precipitation 0.00 in - - ()
Sea Level Pressure  
Sea Level Pressure 30.09 in    
Wind  
Wind Speed 12 mph ()    
Max Wind Speed 20 mph    
Max Gust Speed -    
Visibility 11.0 miles    
Events      
T = Trace of Precipitation, MM = Missing Value Source: Averaged Metar Reports

Daily Weather History Graph

Daily Weather History Graph

Search for Another Location

Airport or City:

Trip Planner

Search our weather history database for the weather conditions in past years. The results will help you decide how hot, cold, wet, or windy it might be!

Date:

Astronomy

Nov. 01, 2012 Rise Set
Actual Time 5:28 AM SAST 6:34 PM SAST
Civil Twilight 5:04 AM SAST 6:58 PM SAST
Nautical Twilight 4:36 AM SAST 7:27 PM SAST
Astronomical Twilight 4:06 AM SAST 7:56 PM SAST
Moon 8:57 PM SAST (11/1) 7:06 AM SAST (11/1)
Length of Visible Light 13h 53m
Length of Day
13h 05m
Waning Gibbous, 94% of the Moon is Illuminated
Nov 1
Waning Gibbous
Nov 7
Last Quarter
Nov 14
New
Nov 20
First Quarter
Nov 28
Full

Hourly Weather History & Observations

Time (SAST) Temp. Dew Point Humidity Pressure Visibility Wind Dir Wind Speed Gust Speed Precip Events Conditions
12:00 AM 64.4 °F 35.6 °F 34% 30.01 in - NE 11.5 mph - N/A   Unknown
1:00 AM 62.6 °F 35.6 °F 37% 30.01 in - NE 10.4 mph - N/A   Unknown
2:00 AM 63 °F 37 °F 27%  in - NE 19.6 mph - -  
2:00 AM 62.6 °F 37.4 °F 39% 30.01 in - NE 18.4 mph - N/A   Unknown
3:00 AM 60.8 °F 37.4 °F 42% 30.01 in - NE 15.0 mph - N/A   Unknown
4:00 AM 59.0 °F 37.4 °F 45% 30.04 in - NE 17.3 mph - N/A   Unknown
5:00 AM 58 °F 39 °F 38%  in 19 mi NE 11.5 mph - -   Scattered Clouds
5:00 AM 57.2 °F 39.2 °F 51% 30.04 in - NE 11.5 mph - N/A   Clear
6:00 AM 57.2 °F 39.2 °F 51% 30.09 in - ENE 9.2 mph - N/A   Clear
7:00 AM 59.0 °F 41.0 °F 51% 30.12 in - ENE 10.4 mph - N/A   Clear
8:00 AM 64 °F 43 °F 34%  in 19 mi NNE 18.4 mph - -   Scattered Clouds
8:00 AM 62.6 °F 41.0 °F 45% 30.15 in - NNE 17.3 mph - N/A   Clear
9:00 AM 66.2 °F 41.0 °F 40% 30.15 in - NNE 19.6 mph - N/A   Clear
10:00 AM 68.0 °F 42.8 °F 40% 30.15 in 6.2 mi North 15.0 mph - N/A   Partly Cloudy
11:00 AM 71 °F 43 °F 26%  in 19 mi NNE 11.5 mph - -   Scattered Clouds
11:00 AM 69.8 °F 42.8 °F 38% 30.15 in 6.2 mi NNE 11.5 mph - N/A   Partly Cloudy
12:00 PM 73.4 °F 42.8 °F 33% 30.12 in 6.2 mi NNE 8.1 mph - N/A   Scattered Clouds
1:00 PM 73.4 °F 41.0 °F 31% 30.12 in 6.2 mi NNE 9.2 mph - N/A   Mostly Cloudy
2:00 PM 76 °F 40 °F 18%  in 19 mi NE 8.1 mph - -   Mostly Cloudy
2:00 PM 75.2 °F 39.2 °F 27% 30.09 in 6.2 mi NE 6.9 mph - N/A   Scattered Clouds
3:00 PM 77.0 °F 39.2 °F 26% 30.06 in 6.2 mi North 6.9 mph - N/A   Scattered Clouds
4:00 PM 75.2 °F 39.2 °F 27% 30.06 in 6.2 mi NE 6.9 mph - N/A   Scattered Clouds
5:00 PM 76 °F 39 °F 16%  in 19 mi NE 9.2 mph - -   Partly Cloudy
5:00 PM 75.2 °F 37.4 °F 25% 30.06 in 6.2 mi NE 9.2 mph - N/A   Scattered Clouds
6:00 PM 73.4 °F 39.2 °F 29% 30.06 in 6.2 mi NE 15.0 mph - N/A   Partly Cloudy
7:00 PM 71.6 °F 39.2 °F 31% 30.09 in 6.2 mi NE 13.8 mph - N/A   Partly Cloudy
8:00 PM 69 °F 43 °F 28%  in 19 mi NE 15.0 mph - -   Scattered Clouds
8:00 PM 68.0 °F 42.8 °F 40% 30.12 in - NE 15.0 mph - N/A   Clear
9:00 PM 66.2 °F 42.8 °F 43% 30.12 in - NE 17.3 mph - N/A   Unknown
10:00 PM 64.4 °F 42.8 °F 45% 30.15 in - ENE 16.1 mph - N/A   Unknown
11:00 PM 64 °F 45 °F 38%  in - NE 16.1 mph - -  
11:00 PM 62.6 °F 44.6 °F 52% 30.15 in - NE 15.0 mph - N/A   Unknown